This is the latest recevied weather packets stored in our database for station/object WX9WTF. If no packets are shown the sender has not sent any weather packets the latest 10 day(s).
| Time | Temp. | Humidity | Pressure | Rain* | Wind** | Luminosity | Snow |
|---|---|---|---|---|---|---|---|
| 1777558710 | 13.89° C | 69% | 1020 hPa | 0 mm | - | 199 W/m² | - |
| 1777558406 | 13.89° C | 71% | 1020.1 hPa | 0 mm | - | 321 W/m² | - |
| 1777558102 | 14.44° C | 71% | 1020 hPa | 0 mm | - | 234 W/m² | - |
| 1777557794 | 14.44° C | 71% | 1020.1 hPa | 0 mm | - | 255 W/m² | - |
| 1777557490 | 15° C | 73% | 1020 hPa | 0 mm | - | 280 W/m² | - |
| 1777557187 | 14.44° C | 76% | 1020 hPa | 0 mm | - | 399 W/m² | - |
| 1777556882 | 13.33° C | 79% | 1020.1 hPa | 0 mm | - | 357 W/m² | - |
| 1777556578 | 12.22° C | 83% | 1020.1 hPa | 0 mm | - | 328 W/m² | - |
| 1777556277 | 11.67° C | 90% | 1020 hPa | 0 mm | - | 312 W/m² | - |
| 1777555974 | 11.67° C | 97% | 1020 hPa | 0 mm | - | 290 W/m² | - |
| 1777555669 | 11.11° C | 99% | 1020.1 hPa | 0 mm | - | 273 W/m² | - |
| 1777555366 | 10.56° C | 99% | 1020.1 hPa | 0 mm | - | 258 W/m² | - |
| 1777555062 | 10.56° C | 99% | 1020 hPa | 0 mm | - | 241 W/m² | - |
| 1777554760 | 10.56° C | 99% | 1020 hPa | 0 mm | - | 222 W/m² | - |
| 1777554457 | 11.11° C | 99% | 1020.1 hPa | 0 mm | - | 205 W/m² | - |
| 1777554153 | 10.56° C | 99% | 1020 hPa | 0 mm | - | 218 W/m² | - |
| 1777553850 | 9.44° C | 99% | 1019.8 hPa | 0 mm | - | 186 W/m² | - |
| 1777553546 | 8.89° C | 99% | 1020 hPa | 0 mm | - | 159 W/m² | - |
| 1777553242 | 7.78° C | 99% | 1019.9 hPa | 0 mm | - | 157 W/m² | - |
| 1777552939 | 7.78° C | 99% | 1019.8 hPa | 0 mm | - | 85 W/m² | - |
| 1777552633 | 7.22° C | 99% | 1019.7 hPa | 0 mm | - | 68 W/m² | - |
| 1777552330 | 7.22° C | 99% | 1019.7 hPa | 0 mm | - | 65 W/m² | - |
| 1777552026 | 7.22° C | 99% | 1019.7 hPa | 0 mm | - | 58 W/m² | - |
| 1777551724 | 6.67° C | 99% | 1019.6 hPa | 0 mm | - | 56 W/m² | - |
| 1777551421 | 6.11° C | 99% | 1019.7 hPa | 0 mm | - | 52 W/m² | - |
* Rain latest hour (hover to see other rain measurements)
** Current wind speed in m/s (hover to see current wind gust speed)